Location: Rounton
(54.4000°N, 1.3500°W)
Time: 06:33:42
(UTC+01:00)

deb Agena D - Pass Details

Date: 15 June 2023
Orbit: 996 x 1023 km, 100.1° (Epoch: 29 September)

Event Time Altitude Azimuth Distance (km) Brightness Sun altitude
Exits shadow 00:02:59 - 130° (SE) 3,012 ? -11.1°
Reaches altitude 10° 00:03:39 10° 128° (SE) 2,772 ? -11.2°
Maximum altitude 00:09:28 44° 59° (ENE) 1,360 ? -11.4°
Drops below altitude 10° 00:15:18 10° 350° (N) 2,778 ? -11.6°
Sets 00:17:53 0° 344° (NNW) 3,731 ? -11.6°
